Regional Weather Roundup
Issued by NWS Goodland, KS

Home | Current Version | Previous Version | Graphics & Text | Print | Product List | Glossary On
Versions: 1 2 3 4 5 6 7 8 9 10 11 12 13 14 15 16 17 18 19 20 21 22 23 24 25 26 27 28 29 30 31 32 33 34 35 36 37 38 39 40 41 42 43 44 45 46 47 48 49 50
000
ASUS43 KGLD 050308
RWRGLD

GOODLAND FORECAST AREA HOURLY WEATHER ROUNDUP
NATIONAL WEATHER SERVICE GOODLAND KS
900 PM MDT TUE AUG 04 2015

...OFFICIAL OBSERVATIONS...

CITY           SKY/WX    TMP DP  RH WIND       PRES   REMARKS
GOODLAND KS    PTCLDY    65  61  87 SE8       30.02R
HILL CITY KS   CLOUDY    67  66  97 SE5       29.96S
IMPERIAL NEB   PTCLDY    65  62  90 E5        30.02R
MCCOOK NEB     PTCLDY    64  62  93 NE3       29.99R
AKRON CO       CLEAR     67  57  70 SE6       30.08R
BURLINGTON CO  CLEAR     68  61  78 SE8       30.06R
LIMON CO       CLEAR     63  55  75 SE5       30.14R
$$

...UNOFFICIAL OBSERVATIONS...

CITY           SKY/WX    TMP DP  RH WIND       PRES   REMARKS
COLBY KS       CLEAR     70  66  88 SE12      30.01S
NORTON KS      PTCLDY    64  61  88 CALM      29.98R
SHARON SPRINGS   N/A     71  64  80 E5          N/A
KIT CARSON CO    N/A     72  58  60 MISG        N/A
YUMA CO          N/A     67  59  75 CALM        N/A
$$


USA.gov is the U.S. government's official web portal to all federal, state and local government web resources and services.